This demonstration page uses our WeatherBlox Daily Observations layout. Learn more.

Hourly Observations for March 26, 2015

Temp ( °F °C ) Dew Point ( °F °C ) Humidity (%) Winds ( mph kmh ) Pressure ( in mb ) Visibility ( mi km ) Precip ( " mm )
12:15 am 00:15 Clear 25 -3.8 18 -7.6 75 75 N 7 11 30.36 1028 10 16.0934 0 0
12:35 am 00:35 Clear 24 -4.3 18 -7.7 77 77 N 7 11 30.36 1028 10 16.0934 0 0
12:55 am 00:55 Clear 26 -3.4 19 -7.1 76 76 N 7 11 30.36 1028 10 16.0934 0 0
1:15 am 01:15 Clear 25 -4 18 -7.6 76 76 N 6 9 30.36 1028 10 16.0934 0 0
1:35 am 01:35 Clear 24 -4.3 19 -7.5 79 79 NNW 3 6 30.36 1028 10 16.0934 0 0
1:55 am 01:55 Clear 25 -4 19 -7.2 79 79 NNW 5 7 30.36 1028 10 16.0934 0 0
2:15 am 02:15 Clear 25 -4 19 -7.5 77 77 NNW 5 7 30.36 1028 10 16.0934 0 0
2:35 am 02:35 Clear 23 -4.9 18 -7.9 80 80 NW 6 9 30.39 1029 10 16.0934 0 0
2:55 am 02:55 Clear 23 -5 17 -8.1 79 79 WNW 5 7 30.39 1029 10 16.0934 0 0
3:15 am 03:15 Clear 24 -4.2 19 -7.3 79 79 WNW 6 9 30.36 1028 10 16.0934 0 0
3:35 am 03:35 Clear 24 -4.5 19 -7.3 81 81 WNW 5 7 30.36 1028 10 16.0934 0 0
3:55 am 03:55 Partly Cloudy 24 -4.5 19 -7.2 82 82 W 5 7 30.36 1028 10 16.0934 0 0
4:15 am 04:15 Clear 23 -4.9 18 -7.6 82 82 W 6 9 30.39 1029 10 16.0934 0 0
4:35 am 04:35 Clear 24 -4.5 19 -7.2 82 82 W 6 9 30.36 1028 10 16.0934 0 0
4:55 am 04:55 Clear 24 -4.6 18 -7.6 80 80 W 6 9 30.39 1029 10 16.0934 0 0
5:15 am 05:15 Clear 22 -5.5 17 -8.1 82 82 W 6 9 30.39 1029 10 16.0934 0 0
5:35 am 05:35 Clear 24 -4.6 18 -7.6 80 80 W 5 7 30.39 1029 10 16.0934 0 0
5:55 am 05:55 Clear 20 -6.7 16 -9.1 83 83 WNW 5 7 30.39 1029 10 16.0934 0 0
6:15 am 06:15 Clear 20 -6.9 16 -9.1 85 85 WNW 6 9 30.39 1029 10 16.0934 0 0
6:35 am 06:35 Clear 21 -6.1 17 -8.1 86 86 WNW 6 9 30.39 1029 10 16.0934 0 0
6:55 am 06:55 Clear 22 -5.5 18 -7.6 85 85 W 5 7 30.39 1029 10 16.0934 0 0
7:15 am 07:15 Clear 21 -6.2 17 -8.6 83 83 W 3 6 30.39 1029 10 16.0934 0 0
7:35 am 07:35 Sunny 21 -6 17 -8.3 84 84 Calm 30.39 1029 10 16.0934 0 0
7:55 am 07:55 Sunny 20 -6.8 16 -8.9 85 85 W 6 9 30.39 1029 10 16.0934 0 0
8:15 am 08:15 Sunny 25 -4 20 -6.7 82 82 W 3 6 30.36 1028 10 16.0934 0 0
8:35 am 08:35 Sunny 28 -2.5 21 -6 77 77 Calm 30.33 1027 10 16.0934 0 0
8:55 am 08:55 Sunny 31 -0.6 24 -4.2 77 77 Calm 30.3 1026 10 16.0934 0 0
9:15 am 09:15 Sunny 36 2.1 25 -3.7 66 66 WSW 3 6 30.27 1025 10 16.0934 0 0
9:35 am 09:35 Sunny 38 3.4 26 -3.2 62 62 WSW 5 7 30.27 1025 10 16.0934 0 0
9:55 am 09:55 Sunny 39 3.8 25 -4.1 57 57 SW 7 11 30.27 1025 10 16.0934 0 0
10:15 am 10:15 Sunny 40 4.5 25 -4.1 54 54 SW 8 13 30.24 1024 10 16.0934 0 0
10:35 am 10:35 Sunny 40 4.5 25 -4 54 54 SW 8 13 30.24 1024 10 16.0934 0 0
10:55 am 10:55 Sunny 41 4.8 24 -4.2 53 53 SW 9 15 30.21 1023 10 16.0934 0 0
11:15 am 11:15 Partly Cloudy 41 4.9 24 -4.2 52 52 SW 12 19 30.21 1023 10 16.0934 0 0
11:35 am 11:35 Partly Cloudy 41 5.1 24 -4.5 50 50 SW 12 19 30.21 1023 10 16.0934 0 0
11:55 am 11:55 Mostly Cloudy 42 5.7 25 -4.1 50 50 SSW 13 20 30.18 1022 10 16.0934 0 0
12:15 pm 12:15 Partly Cloudy 43 6.1 25 -3.8 49 49 SSW 10 17 30.18 1022 10 16.0934 0 0
12:35 pm 12:35 Mostly Cloudy 44 6.5 27 -3 51 51 SSW 13 20 30.18 1022 10 16.0934 0 0
12:55 pm 12:55 Mostly Cloudy 45 7 27 -2.7 50 50 SSW 14 22 30.18 1022 10 16.0934 0 0
1:15 pm 13:15 Mostly Cloudy 46 8 27 -2.6 47 47 S 16 26 30.12 1020 10 16.0934 0 0
1:35 pm 13:35 Mostly Cloudy 48 8.8 28 -2.1 47 47 SSW 16 26 30.12 1020 10 16.0934 0 0
1:55 pm 13:55 Mostly Cloudy 50 9.9 28 -2.1 43 43 S 16 26 30.06 1018 10 16.0934 0 0
2:15 pm 14:15 Cloudy 51 10.8 29 -1.5 43 43 SW 15 24 30.06 1018 10 16.0934 0 0
2:35 pm 14:35 Partly Cloudy 55 12.9 30 -1 39 39 SSW 14 22 30 1016 10 16.0934 0 0
2:55 pm 14:55 Partly Cloudy 57 13.7 30 -1.2 36 36 SW 13 20 30 1016 10 16.0934 0 0
3:15 pm 15:15 Mostly Cloudy 58 14.2 30 -1.1 35 35 WSW 14 22 29.97 1015 10 16.0934 0 0
3:35 pm 15:35 Mostly Cloudy 58 14.5 27 -2.9 30 30 WNW 12 19 29.97 1015 10 16.0934 0 0
3:55 pm 15:55 Cloudy 57 13.9 27 -3 31 31 WNW 15 24 29.97 1015 10 16.0934 0 0
4:15 pm 16:15 Mostly Cloudy 58 14.2 27 -2.9 31 31 WNW 16 26 29.94 1014 10 16.0934 0 0
4:35 pm 16:35 Mostly Cloudy 57 14 26 -3.5 30 30 NW 17 28 29.94 1014 10 16.0934 0 0
4:55 pm 16:55 Mostly Cloudy 60 15.5 26 -3.4 27 27 NNW 20 31 29.91 1013 10 16.0934 0 0
5:15 pm 17:15 Partly Cloudy 59 15 26 -3.4 28 28 NNW 29 46 29.94 1014 10 16.0934 0 0
5:35 pm 17:35 Mostly Cloudy 57 14.1 25 -3.8 29 29 NNW 26 43 29.97 1015 10 16.0934 0 0
5:55 pm 17:55 Mostly Cloudy 57 13.7 27 -3 32 32 NNW 24 39 29.97 1015 10 16.0934 0 0
6:15 pm 18:15 Partly Cloudy 56 13.3 27 -2.9 33 33 N 23 37 29.97 1015 10 16.0934 0 0
6:35 pm 18:35 Sunny 56 13.5 28 -2.3 34 34 NNW 22 35 30 1016 10 16.0934 0 0
6:55 pm 18:55 Partly Cloudy 54 12.2 27 -2.8 35 35 N 25 41 30.03 1017 10 16.0934 0 0
7:15 pm 19:15 Sunny 53 11.5 26 -3.1 36 36 N 23 37 30.03 1017 10 16.0934 0 0
7:35 pm 19:35 Sunny 52 11 26 -3.2 37 37 N 21 33 30.06 1018 10 16.0934 0 0
7:55 pm 19:55 Sunny 50 10 25 -3.7 38 38 NE 25 41 30.06 1018 10 16.0934 0 0
8:15 pm 20:15 Clear 43 6 29 -1.4 59 59 NE 28 44 30.18 1022 10 16.0934 0 0
8:35 pm 20:35 Mostly Cloudy 38 3.6 31 -0.5 75 75 NNE 21 33 30.18 1022 10 16.0934 0 0
8:55 pm 20:55 Cloudy 37 3 31 -0.5 78 78 NNE 23 37 30.21 1023 10 16.0934 0 0
9:15 pm 21:15 Cloudy 36 2.2 31 -0.6 82 82 NE 22 35 30.24 1024 10 16.0934 0 0
9:35 pm 21:35 Cloudy 36 2.1 31 -0.8 81 81 NNE 20 31 30.24 1024 10 16.0934 0 0
9:55 pm 21:55 Cloudy 35 1.7 30 -1.1 82 82 NE 18 30 30.24 1024 10 16.0934 0 0
10:15 pm 22:15 Cloudy 35 1.5 29 -1.4 81 81 NNE 13 20 30.24 1024 10 16.0934 0 0
10:35 pm 22:35 Cloudy 35 1.5 29 -1.7 80 80 NE 14 22 30.24 1024 10 16.0934 0 0
10:55 pm 22:55 Mostly Cloudy 34 1 28 -2.2 79 79 NNE 12 19 30.3 1026 10 16.0934 0 0
11:15 pm 23:15 Mostly Cloudy 33 0.8 27 -2.8 77 77 NE 13 20 30.3 1026 10 16.0934 0 0
11:35 pm 23:35 Mostly Cloudy 33 0.4 27 -3 78 78 NNE 10 17 30.3 1026 10 16.0934 0 0
11:55 pm 23:55 Partly Cloudy 32 0 27 -3 80 80 NNE 12 19 30.3 1026 10 16.0934 0 0

Powered by AerisWeather